| time (UTC) | temp F | wind direction | speed MPH | gust MPH | rain 1hr in | rain 24hr in | rain mn in | humidity % | barometer mb |
| 20260508124021 | 70 | 0 | 0.0 | 0.0 | 0.00 | 0.00 | 0.00 | 57 | |
| 20260508123031 | 69 | 0 | 0.0 | 0.0 | 0.00 | 0.00 | 0.00 | 58 | |
| 20260508122025 | 68 | 0 | 0.0 | 0.0 | 0.00 | 0.00 | 0.00 | 60 | |
| 20260508121020 | 68 | 0 | 0.0 | 0.0 | 0.00 | 0.00 | 0.00 | 63 | |
| 20260508120034 | 67 | 0 | 0.0 | 0.0 | 0.00 | 0.00 | 0.00 | 63 | |
| 20260508115023 | 64 | 0 | 0.0 | 0.0 | 0.00 | 0.00 | 0.00 | 70 | |
| 20260508114023 | 64 | 0 | 0.0 | 0.0 | 0.00 | 0.00 | 0.00 | 70 | |
| 20260508113024 | 64 | 0 | 0.0 | 0.0 | 0.00 | 0.00 | 0.00 | 69 | |
| 20260508112024 | 65 | 0 | 0.0 | 0.0 | 0.00 | 0.00 | 0.00 | 69 | |
| 20260508111033 | 64 | 0 | 0.0 | 0.0 | 0.00 | 0.00 | 0.00 | 72 | |
| 20260508110034 | 62 | 0 | 0.0 | 0.0 | 0.00 | 0.00 | 0.00 | 72 | |
| 20260508105032 | 63 | 0 | 0.0 | 0.0 | 0.00 | 0.00 | 0.00 | 71 | |
| 20260508104032 | 63 | 0 | 0.0 | 0.0 | 0.00 | 0.00 | 0.00 | 72 | |
| 20260508103031 | 64 | 0 | 0.0 | 0.0 | 0.00 | 0.00 | 0.00 | 70 | |
| 20260508102019 | 64 | 0 | 0.0 | 0.0 | 0.00 | 0.00 | 0.00 | 71 | |
| 20260508101019 | 59 | 0 | 0.0 | 0.0 | 0.00 | 0.00 | 0.00 | 78 | |
| 20260508100034 | 58 | 0 | 0.0 | 0.0 | 0.00 | 0.00 | 0.00 | 77 | |
| 20260508094037 | 59 | 0 | 0.0 | 0.0 | 0.00 | 0.00 | 0.00 | 79 | |
| 20260508093036 | 58 | 0 | 0.0 | 0.0 | 0.00 | 0.00 | 0.00 | 79 | |
| 20260508091031 | 56 | 0 | 0.0 | 0.0 | 0.00 | 0.00 | 0.00 | 82 | |
| 20260508090033 | 55 | 0 | 0.0 | 0.0 | 0.00 | 0.00 | 0.00 | 84 | |
| 20260508085035 | 53 | 0 | 0.0 | 0.0 | 0.00 | 0.00 | 0.00 | 86 | |
| 20260508084031 | 52 | 0 | 0.0 | 0.0 | 0.00 | 0.00 | 0.00 | 88 | |
| 20260508083036 | 52 | 0 | 0.0 | 0.0 | 0.00 | 0.00 | 0.00 | 88 | |
| 20260508082023 | 51 | 0 | 0.0 | 0.0 | 0.00 | 0.00 | 0.00 | 89 | |
| 20260508081023 | 51 | 0 | 0.0 | 0.0 | 0.00 | 0.00 | 0.00 | 89 | |
| 20260508080033 | 51 | 0 | 0.0 | 0.0 | 0.00 | 0.00 | 0.00 | 89 | |
| 20260508074033 | 51 | 0 | 0.0 | 0.0 | 0.00 | 0.00 | 0.00 | 89 | |
| 20260508073032 | 51 | 0 | 0.0 | 0.0 | 0.00 | 0.00 | 0.00 | 89 | |
| 20260508071033 | 51 | 0 | 0.0 | 0.0 | 0.00 | 0.00 | 0.00 | 89 | |
| 20260508070037 | 51 | 0 | 0.0 | 0.0 | 0.00 | 0.00 | 0.00 | 89 | |
| 20260508065026 | 51 | 0 | 0.0 | 0.0 | 0.00 | 0.00 | 0.00 | 90 | |
| 20260508064033 | 50 | 0 | 0.0 | 0.0 | 0.00 | 0.00 | 0.00 | 91 | |
| 20260508063026 | 50 | 0 | 0.0 | 0.0 | 0.00 | 0.00 | 0.00 | 91 | |
| 20260508062025 | 50 | 0 | 0.0 | 0.0 | 0.00 | 0.00 | 0.00 | 92 | |
| 20260508061027 | 49 | 0 | 0.0 | 0.0 | 0.00 | 0.00 | 0.00 | 93 | |
| 20260508060038 | 49 | 0 | 0.0 | 0.0 | 0.00 | 0.00 | 0.00 | 93 | |
| 20260508055019 | 48 | 0 | 0.0 | 0.0 | 0.00 | 0.00 | 0.00 | 93 | |
| 20260508053023 | 48 | 0 | 0.0 | 0.0 | 0.00 | 0.00 | 0.00 | 93 | |
| 20260508051028 | 48 | 0 | 0.0 | 0.0 | 0.00 | 0.00 | 0.00 | 93 | |
| 20260508050028 | 48 | 0 | 0.0 | 0.0 | 0.00 | 0.00 | 0.00 | 94 | |
| 20260508044032 | 47 | 0 | 0.0 | 0.0 | 0.00 | 0.00 | 0.00 | 93 | |
| 20260508043024 | 47 | 0 | 0.0 | 0.0 | 0.00 | 0.00 | 0.00 | 93 | |
| 20260508042028 | 47 | 0 | 0.0 | 0.0 | 0.00 | 0.00 | 0.00 | 93 | |
| 20260508041018 | 47 | 0 | 0.0 | 0.0 | 0.00 | 0.00 | 0.00 | 93 | |
| 20260508040037 | 47 | 0 | 0.0 | 0.0 | 0.00 | 0.00 | 0.00 | 93 | |
| 20260508035018 | 47 | 0 | 0.0 | 0.0 | 0.00 | 0.00 | 0.00 | 93 | |
| 20260508033024 | 47 | 0 | 0.0 | 0.0 | 0.00 | 0.00 | 0.00 | 93 | |
| 20260508030029 | 48 | 0 | 0.0 | 0.0 | 0.00 | 0.00 | 0.00 | 93 | |
| 20260508025020 | 48 | 0 | 0.0 | 0.0 | 0.00 | 0.00 | 0.00 | 93 | |
| 20260508024020 | 48 | 0 | 0.0 | 0.0 | 0.00 | 0.00 | 0.00 | 92 | |
| 20260508023021 | 48 | 0 | 0.0 | 0.0 | 0.00 | 0.00 | 0.00 | 92 | |
| 20260508022034 | 48 | 0 | 0.0 | 0.0 | 0.00 | 0.00 | 0.00 | 92 | |
| 20260508021028 | 48 | 0 | 0.0 | 0.0 | 0.00 | 0.00 | 0.00 | 92 | |
| 20260508020027 | 48 | 0 | 0.0 | 0.0 | 0.00 | 0.00 | 0.00 | 92 | |
| 20260508015016 | 49 | 0 | 0.0 | 0.0 | 0.00 | 0.00 | 0.00 | 92 | |
| 20260508012017 | 48 | 0 | 0.0 | 0.0 | 0.00 | 0.00 | 0.00 | 91 | |
| 20260508011019 | 47 | 0 | 0.0 | 0.0 | 0.00 | 0.00 | 0.00 | 91 | |
| 20260508005030 | 47 | 0 | 0.0 | 0.0 | 0.00 | 0.00 | 0.00 | 91 | |
| 20260508004035 | 48 | 0 | 0.0 | 0.0 | 0.00 | 0.00 | 0.00 | 90 | |
| 20260508003021 | 48 | 0 | 0.0 | 0.0 | 0.00 | 0.00 | 0.00 | 90 | |
| 20260508002026 | 49 | 0 | 0.0 | 0.0 | 0.00 | 0.00 | 0.00 | 89 | |
| 20260508001018 | 49 | 0 | 0.0 | 0.0 | 0.00 | 0.00 | 0.00 | 89 | |
| 20260508000035 | 50 | 0 | 0.0 | 0.0 | 0.00 | 0.00 | 0.00 | 89 | |
| 20260507235030 | 50 | 0 | 0.0 | 0.0 | 0.00 | 0.00 | 0.03 | 89 | |
| 20260507234030 | 50 | 0 | 0.0 | 0.0 | 0.00 | 0.00 | 0.03 | 89 | |
| 20260507233030 | 51 | 0 | 0.0 | 0.0 | 0.00 | 0.00 | 0.03 | 89 | |
| 20260507232022 | 51 | 0 | 0.0 | 0.0 | 0.00 | 0.00 | 0.03 | 89 | |
| 20260507231036 | 51 | 0 | 0.0 | 0.0 | 0.00 | 0.00 | 0.03 | 89 | |
| 20260507230040 | 51 | 0 | 0.0 | 0.0 | 0.00 | 0.00 | 0.03 | 89 | |
| 20260507225021 | 51 | 0 | 0.0 | 0.0 | 0.00 | 0.00 | 0.03 | 88 | |
| 20260507224024 | 51 | 0 | 0.0 | 0.0 | 0.00 | 0.00 | 0.03 | 88 | |
| 20260507223032 | 52 | 0 | 0.0 | 0.0 | 0.00 | 0.00 | 0.03 | 89 | |
| 20260507222029 | 52 | 0 | 0.0 | 0.0 | 0.00 | 0.00 | 0.03 | 89 | |
| 20260507220034 | 52 | 0 | 0.0 | 0.0 | 0.00 | 0.00 | 0.03 | 88 | |
| 20260507215020 | 52 | 0 | 0.0 | 0.0 | 0.00 | 0.00 | 0.03 | 88 | |
| 20260507212020 | 52 | 0 | 0.0 | 0.0 | 0.00 | 0.00 | 0.03 | 88 | |
| 20260507211029 | 52 | 0 | 0.0 | 0.0 | 0.00 | 0.00 | 0.03 | 87 | |
| 20260507205029 | 52 | 0 | 0.0 | 0.0 | 0.00 | 0.00 | 0.03 | 86 | |
| 20260507204034 | 52 | 0 | 0.0 | 0.0 | 0.00 | 0.00 | 0.03 | 86 | |
| 20260507203025 | 52 | 0 | 0.0 | 0.0 | 0.00 | 0.00 | 0.03 | 86 | |
| 20260507202036 | 53 | 0 | 0.0 | 0.0 | 0.00 | 0.00 | 0.03 | 86 | |
| 20260507200040 | 53 | 0 | 0.0 | 0.0 | 0.00 | 0.00 | 0.03 | 86 | |
| 20260507195031 | 53 | 0 | 0.0 | 0.0 | 0.00 | 0.00 | 0.03 | 85 | |
| 20260507193025 | 53 | 0 | 0.0 | 0.0 | 0.00 | 0.00 | 0.03 | 85 | |
| 20260507192022 | 53 | 0 | 0.0 | 0.0 | 0.00 | 0.00 | 0.03 | 84 | |
| 20260507190035 | 53 | 0 | 0.0 | 0.0 | 0.00 | 0.00 | 0.03 | 84 | |
| 20260507185034 | 54 | 0 | 0.0 | 0.0 | 0.00 | 0.00 | 0.03 | 82 | |
| 20260507184021 | 54 | 0 | 0.0 | 0.0 | 0.00 | 0.00 | 0.03 | 83 | |
| 20260507182030 | 54 | 0 | 0.0 | 0.0 | 0.00 | 0.00 | 0.03 | 82 | |
| 20260507181032 | 54 | 0 | 0.0 | 0.0 | 0.00 | 0.00 | 0.03 | 82 | |
| 20260507180041 | 55 | 0 | 0.0 | 0.0 | 0.00 | 0.00 | 0.03 | 82 | |
| 20260507175021 | 55 | 0 | 0.0 | 0.0 | 0.00 | 0.00 | 0.03 | 81 | |
| 20260507174023 | 55 | 0 | 0.0 | 0.0 | 0.00 | 0.00 | 0.03 | 80 | |
| 20260507173026 | 56 | 0 | 0.0 | 0.0 | 0.00 | 0.00 | 0.03 | 79 | |
| 20260507172021 | 56 | 0 | 0.0 | 0.0 | 0.00 | 0.00 | 0.03 | 79 | |
| 20260507171025 | 56 | 0 | 0.0 | 0.0 | 0.00 | 0.00 | 0.03 | 79 | |
| 20260507170036 | 56 | 0 | 0.0 | 0.0 | 0.00 | 0.00 | 0.03 | 78 | |
| 20260507165020 | 58 | 0 | 0.0 | 0.0 | 0.00 | 0.00 | 0.03 | 77 | |
| 20260507163022 | 59 | 0 | 0.0 | 0.0 | 0.00 | 0.00 | 0.03 | 71 | |
| 20260507161032 | 60 | 0 | 0.0 | 0.0 | 0.00 | 0.00 | 0.03 | 70 | |
| 20260507160027 | 60 | 0 | 0.0 | 0.0 | 0.00 | 0.00 | 0.03 | 70 | |
| 20260507155032 | 60 | 0 | 0.0 | 0.0 | 0.00 | 0.00 | 0.03 | 70 | |
| 20260507154023 | 60 | 0 | 0.0 | 0.0 | 0.00 | 0.00 | 0.03 | 70 | |
| 20260507153036 | 61 | 0 | 0.0 | 0.0 | 0.00 | 0.00 | 0.03 | 71 | |
| 20260507152022 | 59 | 0 | 0.0 | 0.0 | 0.00 | 0.00 | 0.03 | 70 | |
| 20260507150039 | 60 | 0 | 0.0 | 0.0 | 0.00 | 0.00 | 0.03 | 69 | |
| 20260507145026 | 62 | 0 | 0.0 | 0.0 | 0.00 | 0.00 | 0.03 | 65 | |
| 20260507144036 | 62 | 0 | 0.0 | 0.0 | 0.00 | 0.00 | 0.03 | 61 | |
| 20260507142035 | 62 | 0 | 0.0 | 0.0 | 0.00 | 0.00 | 0.03 | 60 | |
| 20260507141036 | 63 | 0 | 0.0 | 0.0 | 0.00 | 0.00 | 0.03 | 59 | |
| 20260507140039 | 63 | 0 | 0.0 | 0.0 | 0.00 | 0.00 | 0.03 | 57 | |
| 20260507135035 | 64 | 0 | 0.0 | 0.0 | 0.00 | 0.00 | 0.03 | 56 | |
| 20260507134031 | 63 | 0 | 0.0 | 0.0 | 0.00 | 0.00 | 0.03 | 57 | |
| 20260507133037 | 63 | 0 | 0.0 | 0.0 | 0.00 | 0.00 | 0.03 | 57 | |
| 20260507131021 | 63 | 0 | 0.0 | 0.0 | 0.00 | 0.00 | 0.03 | 57 | |
| 20260507125019 | 64 | 0 | 0.0 | 0.0 | 0.00 | 0.00 | 0.03 | 56 |